Theta_e
333 337 339 339 341 340 341 344 345 347 350 353 351 352 356 357 357 353 353 357 354 354 355 357 364 363 364 363 363 364 364 358 360
326 331 336 339 340 341 340 343 347 348 351 353 353 351 356 356 355 355 354 359 359 355 360 358 362 362 363 364 363 363 364 357 361
328 331 334 334 339 341 341 343 346 347 351 351 354 352 353 352 353 354 355 356 357 358 359 360 360 362 363 363 363 362 363 360 362
327 332 334 336 336 341 343 342 344 346 347 349 349 350 354 355 352 351 353 351 354 357 360 361 361 362 362 362 363 364 362 361 361
323 331 336 337 333 335 342 343 342 344 345 346 348 352 354 352 353 352 350 351 352 355 357 361 362 362 362 362 362 363 362 360 358
324 328 332 337 339 339 339 343 343 343 344 345 347 349 349 352 351 351 350 351 352 353 356 358 359 362 361 361 361 362 363 362 361
322 324 326 329 329 333 340 342 344 343 344 346 348 348 347 350 352 354 351 354 353 352 353 356 358 359 359 360 362 361 361 361 361
317 313 319 324 324 324 327 334 343 343 343 347 347 348 347 348 353 353 354 355 355 352 353 354 357 356 356 358 358 358 360 360 360
309 308 309 316 324 323 321 323 330 343 344 344 348 348 347 350 350 351 352 353 354 354 353 353 355 354 355 356 353 340 339 354 360
304 303 305 307 313 323 323 321 324 332 345 346 346 347 349 349 351 349 350 349 351 352 353 354 352 354 354 356 358 333 334 339 359
304 304 303 306 309 311 324 324 321 326 334 340 344 346 347 348 350 349 350 351 349 352 351 352 354 353 354 355 354 332 330 335 357
303 305 305 305 308 309 314 325 324 322 325 329 332 336 340 340 346 349 350 349 350 350 349 350 351 352 355 354 355 328 327 334 353
303 304 305 305 306 308 309 318 325 321 322 324 325 327 330 332 334 336 344 351 352 352 350 349 348 349 353 344 355 332 323 332 348
304 303 304 306 306 307 309 311 323 322 320 319 322 327 330 331 332 334 336 342 346 350 351 350 350 350 352 353 351 352 322 320 351
302 303 303 303 304 306 309 312 316 321 319 321 321 322 329 333 333 337 340 342 345 347 348 347 348 348 349 351 355 332 326 318 322
302 303 304 305 305 306 309 311 315 319 322 321 319 318 320 325 332 334 337 338 341 344 344 346 345 346 346 349 354 354 322 317 317
302 303 303 305 306 307 309 311 314 320 322 321 318 314 315 318 323 327 331 333 338 339 342 344 345 345 346 348 352 355 356 346 335
301 303 304 305 305 307 310 312 311 318 321 319 315 314 312 315 318 321 325 329 331 337 342 335 345 347 349 349 352 355 343 345 353
301 303 304 304 305 306 310 313 313 317 319 317 315 313 313 311 312 317 321 324 326 316 313 313 308 306 324 353 334 319 313 314 312
301 303 303 302 305 309 312 311 313 318 316 314 313 312 313 313 312 315 318 322 322 323 325 312 309 306 304 309 324 309 308 307 308
Wind_Speed
6 15 15 17 18 19 19 19 18 19 17 17 17 17 16 13 13 10 9 10 7 7 7 8 8 8 7 7 5 4 6 5 4
13 6 10 17 18 18 19 20 20 20 18 16 17 19 14 14 13 13 11 10 9 8 7 6 8 8 8 7 6 5 5 5 5
15 13 10 9 15 19 18 21 21 21 19 19 19 19 16 15 15 14 13 11 11 10 9 8 8 9 9 8 7 7 7 5 5
17 16 13 11 12 15 18 19 20 21 20 20 18 18 16 14 15 15 14 13 13 11 10 9 9 9 9 9 9 9 8 8 7
15 16 16 15 12 8 13 16 18 20 19 19 20 17 16 17 15 14 15 14 15 13 12 10 10 9 10 10 10 10 10 10 8
16 17 19 18 17 14 10 10 14 17 17 18 17 16 14 16 17 16 16 15 14 13 13 13 11 10 10 11 11 11 12 11 11
16 19 19 17 17 16 14 11 8 13 15 15 14 16 16 16 16 16 17 15 14 14 13 13 13 13 12 11 11 12 12 12 12
16 19 21 19 17 16 15 17 12 6 12 12 14 15 15 16 14 14 14 13 14 14 14 13 13 13 13 13 11 10 13 13 13
15 16 18 20 20 19 17 16 17 11 5 11 13 15 16 14 14 14 14 14 14 14 14 14 13 14 14 14 12 12 14 13 12
13 14 16 18 19 19 17 16 15 15 9 4 8 12 13 14 13 14 14 14 14 14 15 14 15 15 15 15 15 13 16 17 12
14 15 16 16 16 18 19 17 15 14 13 8 5 6 9 11 12 12 13 14 15 14 13 14 13 14 15 15 14 14 17 18 16
14 14 13 13 14 16 17 17 16 12 11 10 6 4 1 5 7 12 13 15 15 14 12 13 14 14 15 16 16 15 18 16 16
18 16 14 15 17 15 14 17 15 15 11 9 7 7 6 5 3 3 7 12 14 13 12 13 13 15 15 16 17 14 17 18 14
16 15 18 16 15 14 13 13 15 14 13 11 12 10 8 6 6 5 6 8 5 10 11 12 12 15 14 16 16 16 18 19 16
20 19 17 14 15 15 14 12 12 13 11 10 10 13 13 9 6 5 5 7 8 7 10 11 12 13 14 14 15 16 16 19 24
18 19 16 14 13 16 15 13 12 12 12 11 9 10 13 14 11 7 6 4 8 7 8 8 10 10 11 12 12 13 19 19 22
18 18 17 15 16 16 17 11 13 13 10 9 10 11 11 12 11 10 5 5 5 6 7 9 8 9 11 10 12 13 13 13 13
18 18 16 16 16 16 17 14 12 13 11 8 9 11 10 10 10 11 9 4 5 7 8 8 8 11 11 12 14 14 13 13 12
15 17 18 18 17 16 17 15 14 11 9 7 9 10 8 6 8 11 8 9 4 9 14 19 18 19 16 14 18 8 14 17 16
16 13 11 13 16 12 13 13 12 9 6 6 9 10 10 9 8 9 8 8 4 6 9 17 16 15 16 20 18 11 15 15 15
Wind_Direction
261 224 212 211 207 205 207 208 207 205 198 203 202 203 205 211 214 218 221 213 207 208 207 198 178 190 193 196 207 189 178 197 205
25 341 246 225 221 213 209 206 203 203 204 203 201 206 202 204 213 216 219 224 215 211 214 208 187 190 197 192 197 203 191 210 203
9 2 345 289 243 226 216 213 206 201 202 203 203 203 201 203 210 212 212 217 222 217 213 212 198 197 201 201 199 198 203 209 213
17 10 3 337 282 244 232 216 211 207 206 202 203 207 207 207 206 212 210 214 216 220 219 207 206 204 208 210 203 205 206 215 211
14 12 9 6 1 261 235 218 215 211 208 208 212 205 201 207 208 204 214 214 215 215 221 215 212 203 205 213 212 205 215 220 217
23 21 22 18 23 24 350 263 223 218 215 215 213 211 209 209 208 208 211 218 215 215 216 218 216 212 206 205 212 208 211 221 224
27 24 24 23 17 14 7 357 300 225 216 214 214 214 213 212 212 208 212 213 213 211 216 223 219 218 218 213 210 213 213 213 222
28 19 16 15 17 7 4 1 349 264 232 214 210 210 211 214 211 218 218 213 213 215 212 218 224 224 227 225 219 214 213 210 216
25 14 11 5 11 11 4 358 350 342 280 217 207 213 216 214 213 216 217 217 219 217 220 219 219 227 226 227 228 211 205 215 214
21 7 4 2 357 0 1 359 346 345 341 299 231 226 224 221 220 222 223 220 220 219 220 222 221 223 227 229 230 207 201 207 226
9 359 354 354 351 350 345 352 355 341 350 14 15 263 252 247 238 231 228 226 223 221 223 224 223 227 227 230 231 206 203 203 221
350 342 340 336 338 339 335 342 347 344 343 346 16 25 337 350 289 239 237 233 233 229 224 225 225 228 228 227 234 211 202 197 226
333 329 328 331 330 326 332 332 339 338 333 336 341 347 335 325 305 300 266 248 237 237 230 231 234 234 230 229 234 214 209 198 228
316 316 318 324 319 316 317 322 322 325 326 322 330 323 312 304 300 273 256 257 261 245 234 230 232 235 234 232 229 233 206 199 222
310 310 313 314 308 307 308 312 310 307 307 313 318 318 312 301 286 283 282 275 257 256 236 231 228 233 238 235 232 223 218 203 212
305 305 304 305 299 298 296 298 297 289 298 311 312 311 303 304 302 286 286 297 294 270 246 238 238 230 234 242 234 229 212 207 209
305 302 302 302 297 290 289 290 292 279 288 298 303 301 297 297 295 292 279 285 280 274 272 246 244 236 235 237 238 234 225 214 216
301 299 295 300 296 288 286 287 281 275 278 284 288 292 297 299 300 295 293 269 274 289 275 266 278 254 242 238 239 233 222 215 208
300 299 298 295 288 279 277 279 276 261 264 274 288 290 282 279 296 301 297 289 302 257 255 262 268 262 251 245 240 260 198 208 219
326 317 337 335 323 287 273 278 268 258 263 275 280 285 291 293 290 279 284 295 291 302 283 241 253 266 256 242 249 237 221 220 217